[[{"header":{"parameterUnit":"m.s-1","parameterCategory":1,"la1":30.2991,"la2":30.254,"lo1":-89.0895,"lo2":-89.0444,"dy":0.0017,"dx":0.0017,"nx":28,"ny":28,"refTime":"2024-06-20T09:00:00:Z","depth":0,"parameterNumber":2,"parameterNumberName":"U-component_of_WINDS"},"data":[0,0,0,0,0,0,0,0,0,0,0,0,0,0,0,0,0,0,0,0,0,0,0,0,0,0,0,0,0,0,0,0,0,0,0,0,0,0,0,0,0,0,0,0,0,0,0,0,0,0,0,0,0,0,0,0,0,0,-0.1692,-0.1691,0,-0.1629,-0.1628,-0.1627,-0.1529,-0.1527,-0.1525,-0.1524,-0.1461,-0.1461,-0.1461,0,0,0,0,0,0,0,0,0,0,0,0,0,-0.1729,-0.1729,-0.1692,-0.1691,-0.169,-0.1629,-0.1628,-0.1627,-0.1529,-0.1527,-0.1525,-0.1523,-0.1461,-0.1461,-0.1461,0,0,0,0,0,0,0,0,0,0,0,0,0,-0.1694,-0.1729,-0.1692,-0.1634,-0.1628,-0.1629,-0.1628,-0.1627,-0.153,-0.1527,-0.1524,-0.1522,-0.1461,-0.1461,-0.1461,-0.1514,0,0,-0.1461,-0.1461,0,0,0,0,0,0,0,0,-0.1696,-0.1693,-0.1643,-0.1638,-0.1631,-0.1584,-0.1618,-0.1589,-0.153,-0.1567,-0.1524,-0.152,-0.1504,-0.15,-0.1494,-0.1511,-0.1508,-0.1461,-0.1461,-0.1461,-0.146,0,0,0,0,0,0,0,-0.1699,-0.1695,-0.1667,-0.1643,-0.1636,-0.1611,-0.1604,-0.1612,-0.1551,-0.1564,-0.1556,-0.155,-0.15,-0.1495,-0.1492,-0.1507,-0.1461,-0.1461,-0.146,-0.146,-0.1563,-0.1566,0,0,0,0,0,0,-0.171,-0.1698,-0.1669,-0.1665,-0.1658,-0.1613,-0.1604,-0.1602,-0.1551,-0.1541,-0.1552,-0.1546,-0.1496,-0.1492,-0.1489,-0.1548,-0.1461,-0.146,-0.146,-0.1561,-0.1564,-0.1567,0,0,0,0,0,0,-0.1711,-0.1708,-0.1671,-0.1679,-0.1673,-0.1615,-0.1613,-0.1602,-0.1596,-0.1542,-0.1531,-0.1558,-0.1494,-0.1489,-0.1508,-0.1545,-0.146,-0.146,-0.1557,-0.1562,-0.1565,-0.1666,0,0,0,0,0,0,-0.1712,-0.1709,-0.1728,-0.1681,-0.1673,-0.1691,-0.1616,-0.1603,-0.1596,-0.1587,-0.1544,-0.1535,-0.1491,-0.1509,-0.1508,-0.1543,-0.146,-0.1554,-0.1559,-0.1564,-0.1659,-0.1673,-0.1685,0,0,0,0,0,-0.1714,-0.176,-0.173,-0.1727,-0.1696,-0.1694,-0.1689,-0.1638,-0.16,-0.1619,-0.1584,-0.1536,-0.154,-0.1511,-0.151,-0.1545,-0.1551,-0.1558,-0.1564,-0.1654,-0.1671,-0.1685,0,0,0,0,0,0,-0.1815,-0.1753,-0.1719,-0.175,-0.1728,-0.1677,-0.17,-0.1657,-0.1646,-0.1638,-0.1574,-0.1566,-0.1593,-0.157,-0.1539,-0.1594,-0.1538,-0.1545,-0.1607,-0.1623,-0.1636,-0.1641,-0.146,0,0,0,0,0,-0.184,-0.1843,-0.1789,-0.1822,-0.1813,-0.1758,-0.1755,-0.1717,-0.1692,-0.1682,-0.1649,-0.1626,-0.1622,-0.1621,-0.1615,-0.1655,-0.1645,-0.1679,-0.1692,-0.1702,-0.1709,-0.1729,-0.1743,-0.1587,-0.1587,-0.1587,0,0,-0.1894,-0.186,-0.1866,-0.1842,-0.182,-0.1825,-0.1751,-0.1759,-0.1763,-0.1683,-0.1699,-0.1674,-0.1644,-0.1674,-0.1686,-0.1657,-0.1749,-0.171,-0.1719,-0.172,-0.1737,-0.1751,-0.1765,-0.1591,-0.1591,-0.159,0,0,-0.1994,-0.1969,-0.1994,-0.1973,-0.194,-0.1904,-0.191,-0.1865,-0.1845,-0.1859,-0.18,-0.1802,-0.1797,-0.1779,-0.1769,-0.186,-0.1816,-0.186,-0.1928,-0.1948,-0.196,-0.1971,-0.2004,-0.2017,-0.1866,-0.1867,-0.1867,0,-0.2065,-0.2069,-0.2012,-0.2024,-0.2015,-0.1942,-0.1967,-0.195,-0.1918,-0.1913,-0.1881,-0.1872,-0.1847,-0.1871,-0.1894,-0.1888,-0.1893,-0.1865,-0.1963,-0.1973,-0.1982,-0.2013,-0.2026,-0.1872,-0.1872,-0.1871,-0.187,0,-0.2158,-0.2162,-0.2186,-0.2156,-0.2149,-0.2168,-0.2113,-0.2114,-0.2076,-0.2043,-0.2058,-0.2026,-0.2011,-0.2014,-0.1977,-0.2033,-0.2016,-0.1974,-0.1918,-0.2003,-0.2032,-0.2043,-0.188,-0.1878,-0.1877,-0.1875,0,0,-0.2322,-0.2258,-0.2268,-0.2253,-0.2211,-0.2214,-0.2228,-0.2213,-0.2215,-0.2195,-0.2206,-0.2202,-0.2163,-0.2152,-0.2112,-0.213,-0.2205,-0.2085,-0.2084,-0.2109,-0.2265,-0.2297,-0.2312,-0.2175,-0.2177,-0.2178,-0.2267,0,-0.2414,-0.2436,-0.2384,-0.2419,-0.2422,-0.2352,-0.2365,-0.2341,-0.2311,-0.2309,-0.2274,-0.2273,-0.2221,-0.2214,-0.2228,-0.2193,-0.2236,-0.2186,-0.2185,-0.2186,-0.2196,-0.2326,-0.2361,-0.2447,-0.2278,-0.228,-0.2281,0,-0.2525,-0.251,-0.2545,-0.25,-0.25,-0.2512,-0.2494,-0.2493,-0.2464,-0.244,-0.2427,-0.2381,-0.2392,-0.2337,-0.2352,-0.232,-0.2316,-0.2299,-0.2301,-0.23,-0.224,-0.233,-0.2473,-0.2486,-0.2298,-0.2296,-0.2295,0,-0.2642,-0.263,-0.2649,-0.2638,-0.2587,-0.2597,-0.2576,-0.2544,-0.2539,-0.2523,-0.2518,-0.2504,-0.2497,-0.2487,-0.2438,-0.2402,-0.2459,-0.24,-0.244,-0.2442,-0.2457,-0.2457,-0.2602,-0.2453,-0.2453,-0.2453,-0.2452,0,-0.2751,-0.2776,-0.27,-0.2713,-0.2738,-0.2677,-0.2704,-0.2676,-0.2648,-0.2654,-0.2593,-0.2599,-0.2533,-0.2533,-0.2494,-0.2513,-0.251,-0.2491,-0.2481,-0.2498,-0.25,-0.2495,-0.2489,-0.2456,-0.2455,-0.2455,-0.2454,0,-0.2886,-0.2837,-0.2853,-0.2803,-0.279,-0.2811,-0.2768,-0.2777,-0.2742,-0.275,-0.2748,-0.2693,-0.2689,-0.2638,-0.2623,-0.2597,-0.2632,-0.2609,-0.2642,-0.2635,-0.2679,-0.2676,-0.2827,-0.2844,-0.2684,-0.2685,-0.2687,0,-0.296,-0.2977,-0.2928,-0.2927,-0.2909,-0.2908,-0.2901,-0.2842,-0.2838,-0.2806,-0.2819,-0.281,-0.2799,-0.2796,-0.2755,-0.2743,-0.2721,-0.2774,-0.2719,-0.2735,-0.2722,-0.2723,-0.2724,-0.2787,-0.2789,-0.2791,-0.2792,0,-0.3096,-0.307,-0.3063,-0.3047,-0.3041,-0.3025,-0.3006,-0.3009,-0.2944,-0.2942,-0.2937,-0.2929,-0.2913,-0.2905,-0.2886,-0.2864,-0.2818,-0.281,-0.2818,-0.2836,-0.2854,-0.2846,-0.2675,-0.2807,-0.2805,-0.2804,-0.2803,-0.2803,-0.3203,-0.3215,-0.3182,-0.3176,-0.3155,-0.3138,-0.3144,-0.3109,-0.3103,-0.3086,-0.3051,-0.3051,-0.3021,-0.299,-0.2972,-0.2972,-0.2944,-0.2957,-0.296,-0.2965,-0.2974,-0.2854,-0.2968,-0.2967,-0.2967,-0.2966,-0.2966,0,-0.3337,-0.3312,-0.3306,-0.3281,-0.3276,-0.3232,-0.3208,-0.3207,-0.3208,-0.3183,-0.3174,-0.3168,-0.3159,-0.3117,-0.3103,-0.3111,-0.309,-0.311,-0.3109,-0.3105,-0.2999,-0.2993,-0.3127,-0.3127,-0.3127,-0.3127,-0.3127,-0.3127,-0.3406,-0.3423,-0.3394,-0.34,-0.3375,-0.3374,-0.3365,-0.3349,-0.3329,-0.3325,-0.3317,-0.3289,-0.3257,-0.3241,-0.3231,-0.3219,-0.3217,-0.3245,-0.3226,-0.3128,-0.3112,-0.3098,-0.3092,-0.3245,-0.3245,-0.3332,-0.3333,-0.3333]},{"header":{"parameterUnit":"m.s-1","parameterCategory":1,"la1":30.2991,"la2":30.254,"lo1":-89.0895,"lo2":-89.0444,"dy":0.0017,"dx":0.0017,"nx":28,"ny":28,"refTime":"2024-06-20T09:00:00:Z","depth":0,"parameterNumber":3,"parameterNumberName":"V-component_of_WINDS"},"data":[0,0,0,0,0,0,0,0,0,0,0,0,0,0,0,0,0,0,0,0,0,0,0,0,0,0,0,0,0,0,0,0,0,0,0,0,0,0,0,0,0,0,0,0,0,0,0,0,0,0,0,0,0,0,0,0,0,0,0.6047,0.6047,0,0.6066,0.6066,0.6066,0.6036,0.6035,0.6034,0.6033,0.6054,0.6056,0.6057,0,0,0,0,0,0,0,0,0,0,0,0,0,0.5986,0.5988,0.6047,0.6047,0.6047,0.6066,0.6066,0.6066,0.6036,0.6035,0.6034,0.6033,0.6054,0.6056,0.6057,0,0,0,0,0,0,0,0,0,0,0,0,0,0.601,0.5988,0.6047,0.6035,0.6034,0.6066,0.6066,0.6066,0.6037,0.6035,0.6033,0.6032,0.6053,0.6055,0.6058,0.6103,0,0,0.6065,0.6066,0,0,0,0,0,0,0,0,0.6009,0.6012,0.6036,0.6036,0.6035,0.6047,0.6052,0.6079,0.6037,0.6036,0.6033,0.6031,0.6053,0.6055,0.6062,0.6104,0.6105,0.6065,0.6066,0.6067,0.6068,0,0,0,0,0,0,0,0.6007,0.6011,0.6054,0.6037,0.6036,0.6029,0.603,0.6057,0.6053,0.6036,0.6033,0.6036,0.6052,0.606,0.6063,0.6105,0.6065,0.6067,0.6068,0.6069,0.6185,0.6186,0,0,0,0,0,0,0.6007,0.601,0.6054,0.6055,0.6017,0.6031,0.6033,0.6045,0.6053,0.6052,0.6037,0.6034,0.6057,0.606,0.6063,0.6117,0.6067,0.6069,0.6071,0.6183,0.6185,0.6187,0,0,0,0,0,0,0.6005,0.6011,0.6053,0.6032,0.6037,0.6034,0.6047,0.6046,0.6054,0.6054,0.6053,0.6046,0.6056,0.606,0.6093,0.6117,0.6071,0.6073,0.6181,0.6184,0.6186,0.6225,0,0,0,0,0,0,0.6004,0.6011,0.6028,0.6032,0.6038,0.6082,0.6049,0.6047,0.6057,0.6054,0.6062,0.6062,0.6055,0.609,0.6096,0.612,0.6074,0.6179,0.6182,0.6185,0.6221,0.6228,0.6234,0,0,0,0,0,0.6002,0.6038,0.6029,0.6034,0.6059,0.6084,0.6087,0.6078,0.6059,0.6077,0.6077,0.6061,0.6114,0.6094,0.61,0.6125,0.6178,0.6181,0.6185,0.6218,0.6227,0.6234,0,0,0,0,0,0,0.6037,0.6039,0.6028,0.6067,0.6075,0.6079,0.61,0.6088,0.6102,0.6098,0.6087,0.6089,0.6125,0.6128,0.6106,0.6169,0.6142,0.6148,0.6166,0.6174,0.618,0.6179,0.6076,0,0,0,0,0,0.6049,0.6069,0.6069,0.6104,0.6108,0.6104,0.6114,0.6106,0.6115,0.6119,0.6121,0.6131,0.6149,0.6161,0.6178,0.6221,0.6223,0.6241,0.6248,0.6253,0.6258,0.6281,0.6289,0.62,0.6199,0.6199,0,0,0.6075,0.6078,0.6092,0.6111,0.6117,0.6137,0.6107,0.613,0.6146,0.6122,0.6154,0.6156,0.6165,0.6204,0.622,0.6207,0.6283,0.6258,0.6262,0.6264,0.6285,0.6294,0.6301,0.6202,0.6202,0.6201,0,0,0.6133,0.6137,0.6166,0.6172,0.618,0.6177,0.6184,0.6189,0.6189,0.622,0.6203,0.6221,0.6253,0.6261,0.6269,0.6328,0.6314,0.6334,0.6368,0.639,0.6397,0.6403,0.6424,0.6432,0.6338,0.6339,0.6339,0,0.6164,0.6194,0.6183,0.6207,0.6216,0.6195,0.6224,0.6231,0.6245,0.6252,0.6236,0.6276,0.6281,0.632,0.6334,0.6342,0.6349,0.6333,0.6397,0.6403,0.6409,0.6429,0.6437,0.6341,0.6341,0.634,0.634,0,0.6232,0.6253,0.6276,0.6289,0.63,0.6327,0.632,0.6333,0.6324,0.6322,0.6354,0.6359,0.6376,0.6385,0.6377,0.6423,0.6415,0.6398,0.6372,0.642,0.6438,0.6446,0.6344,0.6343,0.6343,0.6342,0,0,0.6313,0.6319,0.6327,0.6333,0.634,0.6357,0.6382,0.6399,0.641,0.642,0.6442,0.6469,0.6453,0.6462,0.6455,0.6474,0.6521,0.6455,0.6455,0.6468,0.6572,0.6585,0.6594,0.6512,0.6513,0.6514,0.6571,0,0.6371,0.6415,0.6405,0.6448,0.6467,0.6447,0.6469,0.6477,0.6475,0.6492,0.6491,0.651,0.6488,0.6493,0.6512,0.6511,0.6542,0.6507,0.6532,0.6533,0.6531,0.6604,0.6617,0.6671,0.6579,0.658,0.6581,0,0.6444,0.6456,0.6501,0.6504,0.6512,0.6533,0.6546,0.6562,0.657,0.6567,0.6577,0.6566,0.6591,0.6564,0.6599,0.6576,0.6585,0.6586,0.6588,0.6591,0.656,0.6608,0.6688,0.6696,0.6592,0.6591,0.659,0,0.6499,0.6526,0.6557,0.6562,0.6567,0.6582,0.6584,0.659,0.66,0.6613,0.6619,0.6634,0.6643,0.6655,0.6648,0.6629,0.6685,0.6657,0.6684,0.6684,0.6697,0.6697,0.678,0.6703,0.6703,0.6702,0.6702,0,0.6564,0.6593,0.6581,0.66,0.6631,0.662,0.6651,0.6651,0.6657,0.6676,0.6659,0.6677,0.6666,0.6683,0.6678,0.6708,0.6712,0.6711,0.671,0.6713,0.6713,0.672,0.6716,0.6705,0.6704,0.6704,0.6703,0,0.6631,0.6625,0.6656,0.6658,0.6659,0.6682,0.6684,0.6701,0.6698,0.6722,0.6727,0.6723,0.6742,0.6736,0.6757,0.6753,0.6792,0.6785,0.6789,0.6788,0.6815,0.6813,0.6906,0.6918,0.6833,0.6833,0.6834,0,0.6674,0.6695,0.6699,0.6709,0.6713,0.6731,0.6741,0.673,0.6742,0.6751,0.6768,0.6785,0.6799,0.6831,0.683,0.6846,0.684,0.6871,0.6842,0.6845,0.684,0.6839,0.6842,0.6877,0.6878,0.6879,0.688,0,0.675,0.6745,0.676,0.6773,0.6786,0.6796,0.6805,0.6815,0.6805,0.6818,0.6837,0.6848,0.6868,0.6886,0.6901,0.6904,0.689,0.6889,0.6896,0.69,0.6901,0.6901,0.6805,0.6887,0.6886,0.6886,0.6885,0.6885,0.6806,0.6824,0.6829,0.6846,0.6851,0.6859,0.6876,0.6874,0.689,0.6906,0.6898,0.6921,0.6927,0.6945,0.695,0.6967,0.6955,0.6965,0.6968,0.6971,0.6975,0.6898,0.6969,0.6969,0.6969,0.6969,0.6969,0,0.6881,0.6883,0.6899,0.6911,0.6924,0.6909,0.6918,0.6931,0.695,0.6957,0.697,0.6992,0.7009,0.7009,0.7025,0.7039,0.7033,0.7043,0.7042,0.7043,0.6984,0.6977,0.7048,0.7048,0.7048,0.7048,0.7048,0.7048,0.6922,0.6951,0.6947,0.6979,0.6981,0.7002,0.7008,0.7016,0.7021,0.7046,0.706,0.7059,0.7063,0.7079,0.7094,0.7093,0.71,0.7113,0.711,0.7055,0.7048,0.704,0.7033,0.7114,0.7114,0.7168,0.7168,0.7169]}]]